Weather in Koshkeldy

Russia / Chechen Republic     43°15′10″N   46°21′19″E
temp.,
°C
wind,
m/s
gust,
m/s
humid.,
%
clouds,
%
prec.,
mm/h
press.,
hPa
HPBL,
m
13 may, thu
thu1300:00+11se11851 0.0 101412
03:00+10se11870 0.0 101410
06:00+12ene11815 0.0 101462
09:00+18ne22631 0.0 1014472
12:00+23ne33531 0.0 1013770
15:00+24ene43543 0.0 1013774
18:00+19ene34742 0.0 1013180
21:00+14s118864 0.0 101513
14 may, fri
fri1400:00+14se119078 0.0 101411
03:00+13ese11883 0.0 101311
06:00+16wsw118012 0.0 101444
09:00+22ne22641 0.0 1013364
12:00+27ene34480 0.0 1012707
15:00+31ene45391 0.0 1010799
18:00+24e24624 0.0 101081
21:00+19s22693 0.0 101119
15 may, sat
sat1500:00+18ssw22670 0.0 101116
03:00+17s21630 0.0 101115
06:00+19ssw11630 0.0 101226
09:00+24nne21530 0.0 1012452
12:00+28ne33510 0.0 1012888
15:00+30ne33340 0.0 10111073
18:00+23ene23550 0.0 101148
21:00+18ssw116943 0.0 101120
16 may, sun
sun1600:00+18ssw117395 0.0 101116
03:00+17ese117159 0.0 101012
06:00+18wsw126921 0.0 101051
09:00+24ne22561 0.0 1009430
12:00+30ene44335 0.0 10061140
15:00+29e811355 0.0 1004682
18:00+24e510480 0.0 1004225
21:00+20sse22590 0.0 100429
17 may, mon
mon1700:00+18ssw11618 0.0 100412
03:00+17s11505 0.0 100416
06:00+18s11525 0.0 100423
09:00+24ne214894 0.0 1004391
12:00+29ene343310 0.0 1003821
15:00+28ene56394 0.0 1002501
18:00+22nne126542 0.0 100369
21:00+18sw236916 0.0 100737